Home > Weather > Baar > Past weeks

Flag for Switzerland Past Weather in Baar, Zug, Switzerland — Yesterday and Last 2 Weeks

Now
79 °F

Warm.


Feels Like: 80 °F
Forecast: 58 / 78 °F
Wind: 6 mph from West

Location: Zuerich-Fluntern

Current Time: Jul 30, 2016 at 1:18:24 PM

Latest Report: Jul 30, 2016 at 12:00 PM


Visibility: N/A

Pressure: 29.91 "Hg

Humidity: 57%

Dew Point: 62 °F

Location of BaarLocation

Past Weather in Baar — Graph

°F

Baar Temperature Yesterday

Maximum temperature yesterday: 79 °F (at 6:00 PM)
Minimum temperature yesterday: 65 °F (at 6:00 AM)
Average temperature yesterday: 71 °F

High & Low Weather Summary for the Past Weeks

 TemperatureHumidityPressure
High88 °F (Jul 20, 5:00 PM)100% (Jul 19, 4:00 PM)30.37 "Hg (Jul 19, 4:00 PM)
Low47 °F (Jul 16, 5:00 AM)32% (Jul 20, 7:00 PM)29.88 "Hg (Jul 20, 7:00 PM)
Average68 °F72%30.08 "Hg
* Reported Jul 15 12:00 PM — Jul 30 12:00 PM, Baar, Weather by CustomWeather, © 2016

Note: Actual official high and low records may vary slightly from our data, if they occured in-between our weather recording intervals... More about our weather records

Advertising

Baar Weather History for the Previous 24 Hours

Scroll right to see more
 ConditionsComfort  
Time TempWeatherWind HumidityBarometerVisibility
12:00 PM
Sat, Jul 30
79 °FWarm.6 mph57%29.91 "HgN/A
11:00 AM74 °FMild.3 mph66%29.93 "HgN/A
10:00 AM72 °FMild.1 mph70%29.95 "HgN/A
9:00 AM68 °FMild.1 mph80%29.97 "HgN/A
8:00 AM66 °FMild.2 mph85%29.98 "HgN/A
7:00 AM64 °FMild.1 mph89%29.98 "HgN/A
6:00 AM64 °FMild.3 mph87%29.98 "HgN/A
5:00 AM65 °FMild.3 mph87%29.98 "HgN/A
4:00 AM64 °FMild.1 mph85%29.99 "HgN/A
3:00 AM65 °FMild.No wind82%30.00 "HgN/A
2:00 AM66 °FMild.1 mph77%29.99 "HgN/A
1:00 AM66 °FMild.No wind77%30.00 "HgN/A
12:00 AM67 °FMild.2 mph75%29.99 "HgN/A
11:00 PM
Fri, Jul 29
68 °FMild.2 mph72%29.98 "HgN/A
10:00 PM70 °FMild.3 mph65%29.97 "HgN/A
9:00 PM73 °FMild.3 mph58%29.94 "HgN/A
8:00 PM76 °FPassing clouds.5 mph56%29.92 "HgN/A
7:00 PM78 °FWarm.3 mph50%29.90 "HgN/A
6:00 PM79 °FWarm.5 mph49%29.91 "HgN/A
5:00 PM77 °FWarm.5 mph51%29.93 "HgN/A
4:00 PM78 °FWarm.7 mph46%29.93 "HgN/A
3:00 PM77 °FWarm.8 mph46%29.95 "HgN/A
2:00 PM78 °FPartly sunny.8 mph45%29.95 "HgN/A
1:00 PM74 °FMild.7 mph55%29.98 "HgN/A
Weather by CustomWeather, © 2016

See weather overviewHow to use our weather pages